TVS108 LIME-EDDF

Flight info

Callsign TVS108
Flight time N/A
Altitude 35000
Route ABESI N851 ROLSA Z162 ZUE T163 EMPAX EMPAX5B
Aircraft B738/M-SDE2E3FGHIRWXY/LB1

Departure

Time N/A
Airport Il Caravaggio International Airport (LIME)

Arrival

Time 2026-04-15 16:53
Airport Frankfurt Main Airport (EDDF)
Time Latitude Longitude Altitude Speed Heading
2026-04-15 16:16 46.94427 8.93772 30195 ft 447 kts 349°
2026-04-15 16:16 46.97521 8.93358 30632 ft 444 kts 349°
2026-04-15 16:16 47.00478 8.92965 31047 ft 441 kts 348°
2026-04-15 16:16 47.03471 8.92567 31444 ft 438 kts 348°
2026-04-15 16:17 47.06408 8.92177 31790 ft 436 kts 347°
2026-04-15 16:17 47.09381 8.91777 32131 ft 435 kts 347°
2026-04-15 16:17 47.12039 8.91418 32441 ft 433 kts 347°
2026-04-15 16:17 47.15126 8.90998 32799 ft 432 kts 347°
2026-04-15 16:18 47.18115 8.90589 33122 ft 431 kts 347°
2026-04-15 16:18 47.21101 8.90181 33462 ft 429 kts 347°
2026-04-15 16:18 47.24064 8.89775 33769 ft 428 kts 347°
2026-04-15 16:18 47.26982 8.89374 34087 ft 427 kts 347°
2026-04-15 16:19 47.29944 8.88940 34347 ft 425 kts 345°
2026-04-15 16:19 47.32810 8.88308 34623 ft 422 kts 343°
2026-04-15 16:19 47.35719 8.87578 34884 ft 422 kts 343°
2026-04-15 16:19 47.38465 8.86909 35136 ft 421 kts 343°
2026-04-15 16:20 47.40984 8.86306 35204 ft 421 kts 343°
2026-04-15 16:21 47.52847 8.83481 35210 ft 414 kts 343°
2026-04-15 16:21 47.58550 8.82549 35208 ft 425 kts 353°
2026-04-15 16:21 47.61323 8.82920 35210 ft 438 kts
2026-04-15 16:22 47.64286 8.83963 35217 ft 447 kts
2026-04-15 16:22 47.70270 8.86423 35208 ft 447 kts
2026-04-15 16:23 47.76261 8.88827 35208 ft 444 kts
2026-04-15 16:23 47.82251 8.90141 35211 ft 434 kts 358°
2026-04-15 16:24 47.88230 8.91113 35209 ft 434 kts 358°
2026-04-15 16:24 47.94194 8.92060 35209 ft 433 kts 358°
2026-04-15 16:25 48.00174 8.92985 35209 ft 432 kts 358°
2026-04-15 16:25 48.06147 8.93900 35202 ft 432 kts 358°
2026-04-15 16:26 48.12067 8.94801 35192 ft 431 kts 357°
2026-04-15 16:26 48.18023 8.95704 35183 ft 431 kts 357°
2026-04-15 16:27 48.23954 8.96606 35182 ft 430 kts 357°
2026-04-15 16:27 48.29892 8.97510 35182 ft 429 kts 357°
2026-04-15 16:28 48.35830 8.98415 35182 ft 429 kts 357°
2026-04-15 16:28 48.41752 8.99319 35182 ft 428 kts 357°
2026-04-15 16:29 48.47640 9.00220 35182 ft 428 kts 357°
2026-04-15 16:29 48.53547 9.01125 35182 ft 427 kts 358°
2026-04-15 16:30 48.59422 9.02027 35182 ft 426 kts 358°
2026-04-15 16:30 48.65306 9.03044 35181 ft 428 kts
2026-04-15 16:31 48.71185 9.04499 35182 ft 428 kts
2026-04-15 16:31 48.77043 9.05917 35182 ft 427 kts
2026-04-15 16:32 48.82885 9.07329 35181 ft 426 kts
2026-04-15 16:32 48.88588 9.08701 35026 ft 417 kts 360°
2026-04-15 16:32 48.91386 9.09216 33989 ft 410 kts 356°
2026-04-15 16:33 48.94149 9.09568 32814 ft 407 kts 356°
2026-04-15 16:33 48.96831 9.09915 31527 ft 409 kts 356°
2026-04-15 16:33 48.99577 9.10288 30035 ft 414 kts 356°
2026-04-15 16:33 49.02369 9.10669 28445 ft 420 kts 356°
2026-04-15 16:34 49.05191 9.11050 26666 ft 428 kts 356°
2026-04-15 16:34 49.08060 9.11434 24747 ft 438 kts 357°
2026-04-15 16:34 49.10783 9.11795 23037 ft 443 kts 357°
2026-04-15 16:34 49.13304 9.12130 21618 ft 443 kts 358°
2026-04-15 16:35 49.16124 9.12507 20473 ft 435 kts 358°
2026-04-15 16:35 49.19338 9.12942 19799 ft 431 kts 359°
2026-04-15 16:35 49.22341 9.13345 19406 ft 441 kts 359°
2026-04-15 16:35 49.25322 9.13761 18568 ft 420 kts 359°
2026-04-15 16:36 49.28184 9.14273 17767 ft 421 kts
2026-04-15 16:36 49.31067 9.15145 16978 ft 431 kts
2026-04-15 16:36 49.33984 9.16162 16140 ft 426 kts
2026-04-15 16:36 49.36848 9.17169 15371 ft 419 kts
2026-04-15 16:37 49.39647 9.18151 14612 ft 413 kts
2026-04-15 16:37 49.42404 9.19121 13858 ft 407 kts
2026-04-15 16:37 49.45132 9.20086 13107 ft 402 kts
2026-04-15 16:37 49.47846 9.21046 12354 ft 404 kts 10°
2026-04-15 16:38 49.50554 9.22010 11594 ft 398 kts 10°
2026-04-15 16:38 49.53226 9.22965 11189 ft 388 kts 10°
2026-04-15 16:38 49.55815 9.23891 11193 ft 380 kts 10°
2026-04-15 16:38 49.58310 9.24821 11128 ft 366 kts 12°
2026-04-15 16:39 49.60709 9.25841 11002 ft 349 kts 13°
2026-04-15 16:39 49.63042 9.26843 10841 ft 342 kts 13°
2026-04-15 16:39 49.65292 9.27806 10665 ft 337 kts 13°
2026-04-15 16:39 49.67517 9.28751 10491 ft 338 kts 13°
2026-04-15 16:40 49.69780 9.29711 10256 ft 338 kts 13°
2026-04-15 16:40 49.71762 9.30541 9964 ft 339 kts 12°
2026-04-15 16:40 49.73524 9.31270 9671 ft 336 kts 13°
2026-04-15 16:40 49.75385 9.32040 9361 ft 334 kts 13°
2026-04-15 16:41 49.77608 9.32948 8987 ft 332 kts 13°
2026-04-15 16:41 49.79807 9.33834 8616 ft 330 kts 13°
2026-04-15 16:41 49.82008 9.34704 8243 ft 329 kts 13°
2026-04-15 16:41 49.84215 9.35560 7868 ft 327 kts 13°
2026-04-15 16:42 49.86404 9.36392 7494 ft 325 kts 13°
2026-04-15 16:42 49.88594 9.37038 7212 ft 316 kts
2026-04-15 16:42 49.90691 9.36529 7195 ft 293 kts 334°
2026-04-15 16:42 49.92358 9.34983 7221 ft 280 kts 322°
2026-04-15 16:43 49.93973 9.33242 7223 ft 280 kts 322°
2026-04-15 16:43 49.95556 9.31568 7193 ft 279 kts 322°
2026-04-15 16:43 49.97148 9.29890 7184 ft 276 kts 322°
2026-04-15 16:43 49.98754 9.28274 7172 ft 278 kts 330°
2026-04-15 16:44 50.00641 9.27547 7172 ft 283 kts 354°
2026-04-15 16:44 50.02574 9.27229 7171 ft 282 kts 341°
2026-04-15 16:44 50.04340 9.25962 7171 ft 274 kts 327°
2026-04-15 16:44 50.05987 9.24512 7162 ft 274 kts 327°
2026-04-15 16:45 50.07644 9.23081 6859 ft 266 kts 328°
2026-04-15 16:45 50.09212 9.21715 6424 ft 260 kts 328°
2026-04-15 16:45 50.10750 9.20363 5989 ft 263 kts 328°
2026-04-15 16:45 50.12250 9.18935 5556 ft 267 kts 318°
2026-04-15 16:46 50.13302 9.16605 5091 ft 257 kts 284°
2026-04-15 16:46 50.13399 9.13913 4661 ft 252 kts 263°
2026-04-15 16:46 50.13227 9.11247 4245 ft 247 kts 264°
2026-04-15 16:46 50.13068 9.08646 4137 ft 229 kts 264°
2026-04-15 16:47 50.12922 9.06265 4160 ft 221 kts 265°
2026-04-15 16:47 50.12809 9.03856 4156 ft 224 kts 265°
2026-04-15 16:47 50.12685 9.01443 4154 ft 224 kts 264°
2026-04-15 16:47 50.12537 8.99042 4154 ft 224 kts 265°
2026-04-15 16:48 50.12323 8.96623 4152 ft 224 kts 258°
2026-04-15 16:48 50.12047 8.94230 4154 ft 226 kts 265°
2026-04-15 16:48 50.11827 8.91835 4155 ft 224 kts 258°
2026-04-15 16:48 50.11470 8.89508 4154 ft 223 kts 254°
2026-04-15 16:49 50.11052 8.87288 4132 ft 200 kts 252°
2026-04-15 16:49 50.10641 8.85372 4144 ft 178 kts 251°
2026-04-15 16:49 50.10222 8.83521 4174 ft 182 kts 250°
2026-04-15 16:49 50.09784 8.81667 4181 ft 182 kts 250°
2026-04-15 16:50 50.09352 8.79843 4151 ft 181 kts 251°
2026-04-15 16:50 50.08911 8.78010 4151 ft 181 kts 249°
2026-04-15 16:50 50.08457 8.76154 4153 ft 182 kts 251°
2026-04-15 16:50 50.08005 8.74297 4152 ft 183 kts 250°
2026-04-15 16:51 50.07555 8.72472 4152 ft 182 kts 247°
2026-04-15 16:51 50.07049 8.70664 4069 ft 185 kts 247°
2026-04-15 16:51 50.06533 8.68791 3321 ft 201 kts 249°
2026-04-15 16:51 50.05982 8.66735 2303 ft 203 kts 248°
2026-04-15 16:52 50.05450 8.64920 1816 ft 172 kts 248°
2026-04-15 16:52 50.05085 8.63286 1342 ft 153 kts 251°
2026-04-15 16:52 50.04777 8.61811 954 ft 138 kts 251°
2026-04-15 16:52 50.04448 8.60421 596 ft 134 kts 248°
2026-04-15 16:53 50.04100 8.59061 454 ft 139 kts 250°
2026-04-15 16:53 50.03772 8.57670 357 ft 131 kts 251°
2026-04-15 16:53 50.03546 8.56709 342 ft 89 kts 246°
2026-04-15 16:53 50.03389 8.56058 337 ft 49 kts 248°
2026-04-15 16:54 50.03302 8.55602 334 ft 37 kts 275°
2026-04-15 16:54 50.03331 8.55322 334 ft 17 kts 281°
2026-04-15 16:54 50.03337 8.55270 334 ft 0 kts 281°
2026-04-15 16:54 50.03340 8.55253 334 ft 6 kts 287°
2026-04-15 16:55 50.03383 8.55174 335 ft 13 kts 345°
2026-04-15 16:55 50.03445 8.55294 336 ft 18 kts 69°
2026-04-15 16:55 50.03500 8.55518 337 ft 25 kts 70°
2026-04-15 16:55 50.03568 8.55800 339 ft 30 kts 69°
2026-04-15 16:56 50.03658 8.56140 341 ft 36 kts 72°
2026-04-15 16:56 50.03745 8.56532 345 ft 39 kts 71°
2026-04-15 16:56 50.03844 8.56947 350 ft 41 kts 70°
2026-04-15 16:56 50.03938 8.57338 355 ft 38 kts 68°
2026-04-15 16:57 50.04031 8.57732 362 ft 39 kts 70°
2026-04-15 16:57 50.04124 8.58116 367 ft 35 kts 70°
2026-04-15 16:57 50.04213 8.58489 365 ft 37 kts 69°
2026-04-15 16:57 50.04312 8.58898 362 ft 42 kts 70°
2026-04-15 16:58 50.04384 8.59198 363 ft 28 kts 65°
2026-04-15 16:58 50.04463 8.59491 367 ft 17 kts 48°
2026-04-15 16:58 50.04574 8.59477 365 ft 21 kts 350°
2026-04-15 16:58 50.04740 8.59410 362 ft 26 kts 345°
2026-04-15 16:59 50.04834 8.59207 360 ft 27 kts 252°
2026-04-15 16:59 50.04765 8.58916 361 ft 28 kts 250°
2026-04-15 16:59 50.04690 8.58625 366 ft 28 kts 249°
2026-04-15 16:59 50.04617 8.58331 376 ft 23 kts 250°
2026-04-15 17:00 50.04602 8.58267 375 ft 0 kts 250°
2026-04-15 17:00 50.04602 8.58266 375 ft 0 kts 250°
2026-04-15 17:03 50.04597 8.58251 375 ft 3 kts 255°
2026-04-15 17:04 50.04620 8.58249 376 ft 8 kts 55°
2026-04-15 17:04 50.04635 8.58380 374 ft 17 kts 83°
2026-04-15 17:04 50.04681 8.58599 367 ft 25 kts 70°
2026-04-15 17:04 50.04756 8.58896 361 ft 32 kts 70°
2026-04-15 17:05 50.04819 8.59135 360 ft 10 kts 39°
2026-04-15 17:05 50.04857 8.59132 362 ft 3 kts 341°
2026-04-15 17:05 50.04892 8.59112 364 ft 2 kts 341°
2026-04-15 17:05 50.04902 8.59107 364 ft 0 kts 341°